TimeEST,TemperatureF,Dew PointF,Humidity,Sea Level PressureIn,VisibilityMPH,Wind Direction,Wind SpeedMPH,Gust SpeedMPH,PrecipitationIn,Events,Conditions,WindDirDegrees,DateUTC
12:53 AM,32.0,6.1,34,30.27,10.0,Calm,Calm,-,N/A,,Clear,0,2013-01-23 05:53:00
1:53 AM,30.0,10.9,45,30.28,10.0,Calm,Calm,-,N/A,,Clear,0,2013-01-23 06:53:00
2:53 AM,28.9,10.0,45,30.28,10.0,Calm,Calm,-,N/A,,Clear,0,2013-01-23 07:53:00
3:53 AM,28.0,7.0,41,30.29,10.0,NNE,3.5,-,N/A,,Clear,20,2013-01-23 08:53:00
4:53 AM,27.0,8.1,45,30.29,10.0,North,3.5,-,N/A,,Clear,10,2013-01-23 09:53:00
5:53 AM,27.0,9.0,47,30.30,10.0,North,4.6,-,N/A,,Clear,10,2013-01-23 10:53:00
6:53 AM,26.1,9.0,49,30.32,10.0,North,3.5,-,N/A,,Clear,360,2013-01-23 11:53:00
7:53 AM,28.0,8.1,43,30.34,10.0,Calm,Calm,-,N/A,,Clear,0,2013-01-23 12:53:00
8:53 AM,30.9,9.0,40,30.34,10.0,Calm,Calm,-,N/A,,Clear,0,2013-01-23 13:53:00
9:53 AM,36.0,6.1,29,30.35,10.0,Variable,3.5,-,N/A,,Clear,0,2013-01-23 14:53:00
10:53 AM,37.9,8.1,29,30.36,10.0,Calm,Calm,-,N/A,,Clear,0,2013-01-23 15:53:00
11:53 AM,41.0,12.0,31,30.32,10.0,SW,4.6,-,N/A,,Clear,220,2013-01-23 16:53:00
12:53 PM,45.0,16.0,31,30.27,10.0,West,8.1,-,0.00,Rain,Light Rain,260,2013-01-23 17:53:00
1:53 PM,46.9,19.0,33,30.22,10.0,SSW,13.8,20.7,0.00,,Clear,200,2013-01-23 18:53:00
2:53 PM,51.1,23.0,33,30.19,10.0,SSW,10.4,-,0.00,,Clear,210,2013-01-23 19:53:00
3:53 PM,52.0,24.1,34,30.18,10.0,WSW,10.4,-,N/A,,Clear,240,2013-01-23 20:53:00
4:53 PM,51.1,24.1,35,30.17,10.0,WSW,9.2,19.6,N/A,,Clear,240,2013-01-23 21:53:00
5:53 PM,48.0,25.0,41,30.17,10.0,SSW,10.4,-,N/A,,Clear,210,2013-01-23 22:53:00
6:53 PM,46.0,26.1,46,30.17,10.0,SW,6.9,-,N/A,,Clear,230,2013-01-23 23:53:00
7:53 PM,45.0,26.1,48,30.15,10.0,SW,11.5,17.3,N/A,,Clear,230,2013-01-24 00:53:00
8:53 PM,44.1,25.0,47,30.15,10.0,WSW,11.5,-,N/A,,Clear,250,2013-01-24 01:53:00
9:53 PM,43.0,25.0,49,30.13,10.0,WSW,8.1,-,N/A,,Clear,240,2013-01-24 02:53:00
10:53 PM,42.1,25.0,51,30.12,10.0,WSW,5.8,-,N/A,,Clear,250,2013-01-24 03:53:00